TimeCDT,TemperatureF,Dew PointF,Humidity,Sea Level PressureIn,VisibilityMPH,Wind Direction,Wind SpeedMPH,Gust SpeedMPH,PrecipitationIn,Events,Conditions,WindDirDegrees,DateUTC
12:15 AM,82.4,71.8,70,29.95,10.0,SW,6.9,16.1,N/A,,Scattered Clouds,220,2013-08-26 05:15:00
12:35 AM,82.4,72.0,71,29.96,10.0,SSW,8.1,-,N/A,,Clear,210,2013-08-26 05:35:00
12:55 AM,82.0,72.0,71,29.95,10.0,SW,8.1,-,N/A,,Clear,220,2013-08-26 05:55:00
1:15 AM,82.0,72.0,71,29.95,10.0,SW,8.1,-,N/A,,Clear,220,2013-08-26 06:15:00
1:35 AM,81.5,72.0,73,29.94,10.0,SW,10.4,-,N/A,,Clear,230,2013-08-26 06:35:00
1:55 AM,81.3,72.1,74,29.95,10.0,WSW,9.2,-,N/A,,Clear,240,2013-08-26 06:55:00
2:15 AM,81.0,72.3,75,29.95,10.0,SW,8.1,-,N/A,,Scattered Clouds,230,2013-08-26 07:15:00
2:35 AM,80.8,72.3,75,29.95,10.0,WSW,6.9,-,N/A,,Overcast,240,2013-08-26 07:35:00
2:55 AM,80.6,72.1,75,29.95,10.0,WSW,8.1,-,N/A,,Mostly Cloudy,240,2013-08-26 07:55:00
3:15 AM,80.2,72.1,76,29.95,10.0,WSW,9.2,-,N/A,,Mostly Cloudy,240,2013-08-26 08:15:00
3:35 AM,79.9,72.1,77,29.94,10.0,SW,9.2,-,N/A,,Mostly Cloudy,230,2013-08-26 08:35:00
3:55 AM,79.7,72.1,78,29.94,10.0,WSW,9.2,16.1,N/A,,Scattered Clouds,240,2013-08-26 08:55:00
4:15 AM,79.7,72.1,78,29.94,10.0,WSW,9.2,-,N/A,,Scattered Clouds,250,2013-08-26 09:15:00
4:35 AM,79.7,72.1,78,29.95,10.0,WSW,6.9,-,N/A,,Mostly Cloudy,250,2013-08-26 09:35:00
4:55 AM,79.5,72.1,78,29.96,10.0,West,4.6,-,N/A,,Overcast,260,2013-08-26 09:55:00
5:15 AM,78.6,72.0,80,29.97,10.0,NW,4.6,-,N/A,,Mostly Cloudy,320,2013-08-26 10:15:00
5:35 AM,77.0,71.8,84,29.96,10.0,NW,3.5,-,N/A,,Scattered Clouds,310,2013-08-26 10:35:00
5:55 AM,76.6,72.3,86,29.98,10.0,Calm,Calm,-,N/A,,Mostly Cloudy,0,2013-08-26 10:55:00
6:15 AM,77.4,72.5,85,29.98,10.0,Calm,Calm,-,N/A,,Overcast,0,2013-08-26 11:15:00
6:35 AM,77.9,72.7,84,29.99,10.0,SE,3.5,-,N/A,,Overcast,130,2013-08-26 11:35:00
6:55 AM,77.7,73.0,85,29.99,10.0,SSE,3.5,-,N/A,,Overcast,150,2013-08-26 11:55:00
7:15 AM,77.0,73.9,90,30.00,7.0,SSE,4.6,-,N/A,,Overcast,150,2013-08-26 12:15:00
7:35 AM,77.0,73.4,89,30.00,10.0,SSE,8.1,-,N/A,,Overcast,150,2013-08-26 12:35:00
7:55 AM,76.3,72.9,89,30.00,10.0,SSE,8.1,-,N/A,,Mostly Cloudy,160,2013-08-26 12:55:00
8:15 AM,77.0,73.4,89,30.00,10.0,South,5.8,-,N/A,,Scattered Clouds,170,2013-08-26 13:15:00
8:35 AM,77.9,73.9,88,29.99,10.0,South,4.6,-,N/A,,Clear,180,2013-08-26 13:35:00
8:55 AM,80.1,73.4,80,29.98,10.0,SSW,5.8,-,N/A,,Clear,210,2013-08-26 13:55:00
9:15 AM,81.1,73.2,77,29.98,10.0,SSW,6.9,-,N/A,,Clear,200,2013-08-26 14:15:00
9:35 AM,82.4,72.9,73,29.98,10.0,SW,8.1,-,N/A,,Clear,230,2013-08-26 14:35:00
9:55 AM,82.8,72.5,71,29.98,10.0,WSW,6.9,-,N/A,,Clear,240,2013-08-26 14:55:00
10:15 AM,82.9,72.5,71,29.98,10.0,SSW,5.8,-,N/A,,Clear,210,2013-08-26 15:15:00
10:35 AM,83.8,72.5,69,29.98,10.0,WSW,9.2,-,N/A,,Clear,240,2013-08-26 15:35:00
10:55 AM,84.2,72.5,68,29.98,10.0,SW,10.4,-,N/A,,Clear,220,2013-08-26 15:55:00
11:15 AM,83.7,72.3,69,29.98,10.0,SW,8.1,-,N/A,,Clear,220,2013-08-26 16:15:00
11:35 AM,85.8,73.2,66,29.98,10.0,South,9.2,-,N/A,,Clear,170,2013-08-26 16:35:00
11:55 AM,84.4,72.9,68,29.98,10.0,South,8.1,-,N/A,,Clear,170,2013-08-26 16:55:00
12:15 PM,84.2,72.7,68,29.97,10.0,South,8.1,-,N/A,,Clear,170,2013-08-26 17:15:00
12:35 PM,86.0,72.9,65,29.96,10.0,SSW,8.1,-,N/A,,Clear,200,2013-08-26 17:35:00
12:55 PM,86.2,72.7,64,29.96,10.0,South,10.4,-,N/A,,Clear,180,2013-08-26 17:55:00
1:15 PM,86.7,72.9,63,29.96,10.0,South,9.2,-,N/A,,Clear,180,2013-08-26 18:15:00
1:35 PM,87.3,72.5,61,29.95,10.0,SW,8.1,-,N/A,,Clear,220,2013-08-26 18:35:00
1:55 PM,88.7,72.9,59,29.94,10.0,South,8.1,-,N/A,,Clear,180,2013-08-26 18:55:00
2:15 PM,89.8,72.5,57,29.93,10.0,SSW,9.2,-,N/A,,Clear,210,2013-08-26 19:15:00
2:35 PM,90.0,72.7,57,29.93,10.0,South,9.2,-,N/A,,Scattered Clouds,180,2013-08-26 19:35:00
2:55 PM,91.4,71.8,52,29.92,10.0,SSE,11.5,-,N/A,,Mostly Cloudy,160,2013-08-26 19:55:00
3:15 PM,92.3,72.0,51,29.91,10.0,South,9.2,-,N/A,,Scattered Clouds,170,2013-08-26 20:15:00
3:35 PM,91.8,71.8,52,29.91,10.0,South,9.2,-,N/A,,Scattered Clouds,170,2013-08-26 20:35:00
3:55 PM,89.8,72.1,56,29.92,10.0,SSW,5.8,-,N/A,,Mostly Cloudy,210,2013-08-26 20:55:00
4:15 PM,91.4,71.6,52,29.91,10.0,SSE,3.5,-,N/A,,Mostly Cloudy,150,2013-08-26 21:15:00
4:35 PM,90.7,70.9,52,29.90,10.0,SSW,5.8,-,N/A,,Scattered Clouds,200,2013-08-26 21:35:00
4:55 PM,90.1,71.6,54,29.90,10.0,SE,4.6,-,N/A,,Clear,140,2013-08-26 21:55:00
5:15 PM,90.7,71.8,54,29.89,10.0,SSE,5.8,-,N/A,,Clear,150,2013-08-26 22:15:00
5:35 PM,90.9,71.8,53,29.87,10.0,SE,5.8,-,N/A,,Clear,140,2013-08-26 22:35:00
5:55 PM,90.3,72.5,56,29.87,10.0,SSE,4.6,-,N/A,,Clear,150,2013-08-26 22:55:00
6:15 PM,89.2,72.9,58,29.88,10.0,SE,5.8,-,N/A,,Clear,130,2013-08-26 23:15:00
6:35 PM,87.6,73.4,63,29.88,10.0,ESE,3.5,-,N/A,,Clear,110,2013-08-26 23:35:00
6:55 PM,86.5,72.9,64,29.86,10.0,ESE,4.6,-,N/A,,Clear,120,2013-08-26 23:55:00
7:15 PM,86.2,72.7,64,29.86,10.0,SSE,5.8,-,N/A,,Clear,150,2013-08-27 00:15:00
7:35 PM,85.5,73.0,66,29.85,10.0,SE,5.8,-,N/A,,Scattered Clouds,130,2013-08-27 00:35:00
7:55 PM,85.1,73.4,68,29.87,10.0,SE,4.6,-,N/A,,Scattered Clouds,140,2013-08-27 00:55:00
8:15 PM,84.7,73.4,69,29.91,10.0,North,10.4,-,N/A,,Mostly Cloudy,360,2013-08-27 01:15:00
8:35 PM,74.7,67.8,79,29.90,10.0,NE,12.7,27.6,0.02,Rain,Rain,40,2013-08-27 01:35:00
8:55 PM,72.1,69.4,91,29.93,10.0,NE,9.2,-,0.03,Rain,Light Rain,50,2013-08-27 01:55:00
9:15 PM,71.6,69.4,93,29.91,10.0,Calm,Calm,-,N/A,,Clear,0,2013-08-27 02:15:00
9:35 PM,72.0,70.2,94,29.90,10.0,Calm,Calm,-,N/A,,Clear,0,2013-08-27 02:35:00
9:55 PM,72.1,70.3,94,29.90,10.0,SE,3.5,-,N/A,Rain,Light Rain,130,2013-08-27 02:55:00
10:15 PM,72.0,70.2,94,29.91,10.0,SE,4.6,-,N/A,Rain,Light Rain,130,2013-08-27 03:15:00
10:35 PM,72.0,70.3,95,29.90,10.0,ESE,4.6,-,0.01,Rain,Light Rain,120,2013-08-27 03:35:00
10:55 PM,72.0,70.7,96,29.90,10.0,East,4.6,-,0.02,Rain,Light Rain,100,2013-08-27 03:55:00
11:15 PM,72.0,70.7,96,29.90,10.0,ESE,4.6,-,0.01,Rain,Light Rain,110,2013-08-27 04:15:00
11:35 PM,72.0,70.3,95,29.89,10.0,ESE,3.5,-,0.03,Rain,Light Rain,110,2013-08-27 04:35:00
11:55 PM,72.0,70.7,96,29.88,10.0,SE,4.6,-,0.03,Rain,Light Rain,130,2013-08-27 04:55:00